Torna al catalogo

YAOGAN-40 02A

AttivoMilitarePO
NORAD 63918·PAYLOAD·🇨🇳 China

Lanciato May 11, 2025 da Taiyuan Satellite Launch Center

Loading…

Prossimi Passaggi (prossime 24 ore)

TLE

AggiornatoSource: Space-Track

Epoca: Sep 14, 2026, 13:01 UTC

1 63918U 25096A   26257.54237663  .00000100  00000-0  43931-4 0  9992
2 63918  85.9984 147.9614 0002072  96.7604 263.3815 14.12461715 69181

Traccia YAOGAN-40 02A in tempo reale con AllMySat

Download on the App Store